GFSFLT2_700_temp_000.txt.gz
Temp
5 5 4 4 5 5 5 5 5 5 5 4 4 4 4 4 4 3 3 3 3 3 3 4 4 4 4 4 4 4 3 3
4 4 4 4 5 5 5 5 5 5 5 5 4 4 4 4 3 3 3 3 3 3 3 3 3 3 3 3 3 4 4 4
4 4 4 4 4 4 5 5 5 4 4 4 4 4 4 3 3 3 3 3 3 3 3 3 3 3 3 3 2 3 3 3
4 4 4 4 4 4 4 4 4 4 4 4 3 3 3 3 3 3 3 3 3 3 3 2 2 2 2 2 2 2 2 2
4 4 4 3 4 4 4 4 4 4 3 3 3 3 3 3 3 2 2 2 2 2 2 2 2 2 2 2 2 2 2 2
4 4 3 3 3 4 4 4 3 3 3 3 3 3 2 2 2 2 2 1 1 1 1 1 2 2 2 2 2 2 2 1
4 3 3 3 3 3 3 3 3 3 2 2 2 2 2 2 2 1 1 1 1 0 1 1 1 1 1 1 1 1 1 1
3 3 3 3 3 3 3 3 2 2 2 2 2 1 1 1 1 1 1 0 0 -0 -0 -0 -0 -0 0 0 0 0 0 0
3 3 3 3 3 3 3 2 2 2 1 1 1 1 0 0 0 0 0 0 0 0 -0 -0 -0 -0 -0 -0 -0 -0 -0 -0
3 3 3 3 3 2 2 2 2 1 1 0 0 0 -0 -0 -0 -0 -1 -1 -1 -1 -1 -1 -0 -0 -1 -1 -1 -1 -1 -1
4 3 3 2 2 2 2 2 1 1 0 -0 -0 -1 -1 -1 -1 -1 -1 -1 -1 -1 -1 -1 -1 -1 -1 -1 -2 -2 -2 -2
3 3 2 2 2 2 1 1 1 0 -0 -0 -1 -1 -2 -2 -1 -1 -1 -1 -1 -1 -1 -1 -2 -2 -2 -2 -2 -2 -2 -2
2 2 2 2 1 1 1 1 -0 -0 -1 -1 -1 -2 -2 -2 -2 -2 -2 -2 -2 -2 -2 -2 -2 -2 -2 -2 -2 -2 -3 -3
3 2 2 2 1 1 0 0 -1 -1 -1 -2 -2 -2 -2 -2 -2 -2 -2 -2 -2 -2 -2 -2 -2 -2 -3 -3 -3 -4 -4 -3
2 2 2 1 1 0 -0 -0 -1 -1 -2 -2 -2 -2 -2 -2 -3 -2 -2 -2 -2 -2 -2 -2 -2 -3 -3 -4 -4 -4 -4 -4
2 1 1 1 0 -0 -1 -1 -1 -1 -2 -2 -2 -2 -2 -3 -3 -3 -3 -3 -2 -2 -2 -3 -3 -3 -5 -5 -5 -4 -4 -4
1 1 0 -0 -1 -1 -1 -1 -2 -3 -2 -2 -2 -2 -3 -4 -3 -3 -3 -3 -3 -3 -3 -3 -3 -3 -4 -5 -5 -6 -6 -5
0 0 -1 -1 -1 -2 -2 -3 -3 -3 -2 -2 -3 -4 -4 -4 -3 -3 -3 -4 -4 -4 -4 -4 -5 -5 -6 -6 -6 -6 -7 -7
-0 -2 -2 -2 -2 -2 -3 -3 -3 -4 -4 -4 -4 -4 -4 -4 -4 -4 -5 -5 -5 -6 -7 -8 -7 -8 -8 -8 -8 -8 -8 -8
-2 -2 -2 -2 -3 -2 -3 -3 -4 -4 -5 -5 -5 -5 -5 -5 -5 -5 -6 -7 -8 -10 -10 -10 -10 -10 -9 -9 -9 -10 -9 -8

GFSFLT2_700_temp_003.txt.gz
Temp
5 5 5 5 5 5 5 5 5 5 5 5 5 4 4 4 4 4 4 4 4 3 3 3 3 3 4 3 3 3 3 3
5 4 5 5 5 6 5 5 5 5 5 4 4 4 4 3 3 3 3 3 3 3 3 3 3 3 3 3 3 3 3 3
4 4 5 5 5 5 5 5 5 4 4 4 4 3 3 3 3 3 3 3 3 3 3 2 2 2 2 2 2 2 2 2
4 4 5 5 5 5 4 4 4 4 4 4 3 3 3 3 3 3 3 3 2 2 2 2 2 2 2 2 2 2 2 2
4 4 4 4 4 4 4 4 4 4 3 3 3 3 3 3 2 2 2 2 2 2 2 2 2 2 2 2 2 2 1 1
4 4 4 4 4 3 3 3 3 3 3 3 3 3 3 3 2 2 1 1 1 1 1 1 1 1 1 1 1 1 1 1
3 4 4 3 3 3 3 3 3 3 3 3 2 2 2 2 2 1 1 1 1 1 1 1 1 1 1 1 1 1 1 1
3 2 3 3 3 3 3 3 3 3 2 2 2 1 1 1 1 0 0 1 0 0 0 0 0 0 1 1 1 1 1 1
3 3 3 3 3 3 3 3 2 2 2 2 1 1 0 0 -0 -0 -0 -0 0 0 0 0 0 0 0 0 0 0 0 -0
3 3 3 3 3 3 3 2 2 2 2 1 1 1 0 0 0 0 -0 -0 -0 -0 -0 -0 -0 -0 -0 -0 -1 -1 -1 -1
3 2 2 3 3 3 2 2 2 1 1 0 0 -0 -0 -1 -1 -1 -1 -1 -1 -1 -1 -1 -1 -1 -1 -2 -2 -1 -1 -1
3 3 2 3 2 2 2 2 1 1 0 0 -0 -1 -0 -1 -1 -1 -1 -1 -2 -2 -1 -1 -1 -2 -2 -2 -2 -3 -2 -2
3 2 2 2 2 2 1 1 1 -0 -0 -1 -1 -1 -1 -1 -2 -2 -2 -2 -2 -2 -2 -2 -2 -2 -2 -2 -2 -2 -3 -3
2 2 2 2 1 2 1 1 -0 -0 -1 -1 -1 -1 -2 -3 -2 -2 -2 -2 -2 -3 -3 -3 -3 -3 -3 -3 -3 -3 -3 -4
3 3 2 2 1 1 0 -0 -1 -1 -2 -2 -2 -2 -3 -2 -2 -2 -3 -3 -3 -3 -3 -3 -3 -3 -3 -4 -4 -3 -4 -3
3 2 2 2 1 0 -0 -1 -2 -2 -3 -2 -2 -3 -2 -2 -2 -3 -3 -3 -4 -4 -4 -4 -4 -4 -4 -4 -5 -6 -5 -5
2 2 1 1 1 0 -1 -1 -2 -3 -3 -3 -2 -3 -3 -4 -4 -4 -4 -4 -4 -4 -4 -4 -4 -4 -4 -5 -5 -5 -6 -6
1 1 1 0 -1 -1 -2 -2 -2 -2 -3 -3 -3 -4 -4 -5 -5 -5 -5 -5 -5 -5 -6 -5 -5 -6 -6 -7 -7 -7 -8 -8
0 0 -1 -2 -2 -2 -2 -1 -2 -3 -3 -4 -5 -5 -5 -5 -5 -5 -5 -5 -7 -8 -9 -9 -9 -9 -10 -9 -9 -10 -10 -10
-1 -1 -2 -2 -1 -2 -2 -3 -4 -4 -5 -5 -5 -5 -5 -5 -6 -6 -6 -7 -8 -9 -10 -10 -11 -11 -11 -11 -11 -11 -11 -11

GFSFLT2_700_temp_006.txt.gz
Temp
6 6 6 5 5 6 6 5 5 5 5 5 5 5 4 4 4 3 3 3 3 3 3 3 3 3 3 3 4 4 3 3
6 6 5 5 5 6 5 5 5 5 5 4 4 4 4 4 3 3 3 3 3 3 3 3 3 3 2 2 3 3 3 3
6 5 5 5 5 5 5 5 5 5 4 4 4 4 4 4 4 3 3 3 3 3 3 3 3 3 2 2 2 2 2 2
4 4 4 4 5 5 5 5 5 4 4 4 3 3 3 3 3 3 3 3 3 3 3 3 3 2 2 2 2 3 2 2
3 4 4 4 4 4 4 4 4 4 4 3 3 3 3 3 3 3 3 3 3 2 2 2 2 1 1 1 1 2 2 2
3 4 4 4 4 4 4 4 4 3 3 3 3 3 2 2 2 2 2 2 2 2 2 2 2 2 1 1 1 1 1 1
3 4 4 4 4 4 4 3 3 3 3 3 3 2 2 2 2 2 2 2 1 1 1 1 1 1 2 2 1 1 1 1
3 4 4 4 4 4 4 4 3 3 3 3 2 2 2 2 1 1 1 1 1 1 1 1 2 2 1 1 2 1 1 1
4 4 4 4 4 4 3 4 3 3 2 2 2 2 1 1 1 1 1 1 1 0 1 0 1 1 1 1 1 2 2 2
3 1 4 4 4 4 3 3 2 2 2 1 1 1 1 1 0 0 -0 -0 -0 -0 0 0 0 -0 -0 -1 -1 -1 0 1
4 3 3 3 4 3 3 2 2 2 1 0 0 -0 -0 -0 -0 -1 -1 -1 -1 -1 -1 -1 -1 -1 -2 -2 -2 -2 -2 -2
4 3 3 3 1 3 1 1 1 1 1 -1 -0 -1 -0 -1 -1 -1 -2 -2 -2 -2 -2 -2 -2 -2 -2 -2 -2 -2 -2 -2
3 3 3 3 2 3 3 2 1 0 -0 -1 -1 -1 -1 -2 -2 -2 -2 -2 -2 -2 -3 -2 -2 -2 -3 -3 -2 -2 -3 -2
3 3 3 3 2 2 2 2 1 -0 -1 -1 -1 -2 -3 -2 -3 -2 -3 -2 -2 -3 -3 -3 -3 -3 -3 -4 -3 -3 -3 -3
3 3 3 3 2 2 2 1 -0 -1 -1 -2 -2 -3 -3 -2 -3 -3 -3 -3 -3 -4 -4 -4 -4 -4 -4 -4 -5 -4 -4 -3
3 2 2 2 2 1 0 -0 -1 -1 -2 -2 -2 -2 -3 -3 -4 -4 -5 -5 -5 -5 -5 -5 -5 -5 -4 -4 -5 -5 -5 -4
2 2 2 1 1 0 0 -1 -1 -2 -2 -2 -2 -2 -3 -5 -5 -5 -5 -5 -5 -5 -5 -4 -4 -5 -5 -5 -6 -7 -8 -9
1 1 0 0 -0 -1 -1 -1 -2 -2 -2 -2 -2 -4 -5 -5 -5 -5 -5 -5 -6 -6 -6 -6 -6 -7 -8 -9 -9 -9 -9 -9
0 -0 -1 -1 -2 -2 -2 -2 -2 -3 -3 -4 -5 -5 -5 -6 -5 -6 -6 -6 -7 -7 -8 -9 -9 -10 -10 -11 -11 -11 -11 -11
-1 -0 -1 -1 -2 -2 -3 -3 -3 -4 -4 -5 -5 -6 -6 -6 -7 -7 -7 -7 -8 -8 -9 -10 -11 -12 -11 -11 -11 -11 -11 -11

GFSFLT2_700_temp_009.txt.gz
Temp
7 7 6 6 6 6 6 6 6 6 5 5 5 5 4 4 4 4 4 3 3 3 3 3 3 3 3 3 3 3 2 2
6 6 6 6 6 6 6 6 6 5 5 5 5 5 4 4 4 4 4 4 4 4 4 4 3 3 3 3 3 2 2 2
6 6 5 6 5 6 6 5 5 4 5 4 4 4 4 4 4 4 4 4 4 4 3 3 3 3 3 3 3 2 2 2
6 5 6 5 5 5 5 4 4 4 4 4 4 4 4 4 3 3 4 4 4 4 4 3 3 3 3 2 2 2 1 1
5 4 5 5 5 5 5 5 4 4 4 4 3 3 3 3 3 3 3 3 3 3 3 3 3 3 2 2 2 2 1 1
4 4 4 4 4 4 5 4 4 4 4 3 3 3 3 2 2 2 2 2 2 2 2 2 2 2 2 2 2 2 1 1
4 4 3 4 4 4 4 4 4 3 3 3 3 3 3 2 2 2 1 1 1 1 1 1 1 1 2 2 2 2 2 2
4 3 3 3 4 4 4 3 3 3 3 3 3 2 2 2 1 1 1 1 1 1 0 0 1 1 1 1 2 2 2 2
4 2 3 3 4 3 4 3 3 2 2 2 2 2 1 1 1 0 0 0 0 -0 -0 -0 -0 -0 -0 -0 -0 1 1 2
3 3 3 4 3 3 3 3 3 2 1 1 1 2 1 1 1 0 0 -0 -0 -1 -1 -0 -0 -0 -1 -1 -1 -1 -1 -0
4 4 4 4 3 2 3 2 2 2 1 1 0 0 -0 -1 -1 0 -0 -1 -1 -1 -1 -1 -1 -1 -1 -1 -2 -1 -1 -2
3 4 4 4 1 2 3 2 2 2 2 1 1 0 0 -1 -2 -2 -2 -2 -1 -1 -2 -2 -3 -3 -3 -2 -2 -2 -2 -2
4 4 3 2 2 2 2 2 1 1 1 -0 -1 -1 -2 -1 -1 -2 -2 -2 -1 -2 -2 -3 -3 -3 -3 -3 -3 -3 -2 -2
4 4 3 2 2 2 2 1 1 -0 -1 -1 -1 -2 -3 -2 -2 -2 -2 -2 -3 -3 -3 -3 -3 -4 -4 -4 -4 -3 -3 -3
3 3 2 2 2 1 1 0 -0 -1 -1 -2 -2 -2 -1 -2 -2 -3 -3 -4 -4 -4 -5 -5 -4 -4 -5 -5 -5 -4 -4 -4
2 2 2 1 1 1 0 -1 -1 -1 -1 -1 -1 -2 -2 -2 -3 -3 -4 -5 -6 -5 -5 -5 -5 -5 -5 -6 -6 -6 -6 -5
2 2 2 2 1 0 0 -0 -1 -1 -2 -2 -2 -3 -4 -4 -5 -5 -6 -6 -6 -6 -5 -6 -6 -6 -6 -7 -8 -8 -9 -9
1 1 -0 -0 -1 -1 -1 -1 -1 -2 -2 -3 -3 -4 -5 -5 -5 -6 -6 -6 -6 -6 -7 -7 -8 -8 -9 -10 -11 -11 -11 -11
1 1 0 -0 -1 -2 -2 -3 -3 -4 -5 -5 -6 -6 -6 -6 -6 -7 -7 -7 -7 -8 -8 -9 -9 -10 -10 -11 -12 -12 -12 -12
-0 -0 -1 -1 -2 -2 -3 -3 -4 -4 -5 -5 -6 -6 -6 -7 -7 -7 -8 -8 -8 -9 -9 -10 -11 -12 -12 -12 -12 -12 -12 -12

GFSFLT2_700_temp_012.txt.gz
Temp
6 6 6 6 6 6 6 6 6 6 6 5 5 5 5 5 4 4 4 4 4 3 3 3 3 3 3 3 3 3 3 3
6 6 6 6 6 6 6 6 6 5 5 5 5 4 4 4 4 4 4 4 4 4 3 2 2 2 2 2 2 2 2 2
5 5 5 6 6 5 5 5 5 5 5 5 5 4 4 4 4 4 4 4 4 4 3 2 2 2 2 2 1 1 1 2
5 5 5 5 5 5 5 5 5 5 5 4 4 4 4 4 4 4 3 3 3 3 3 3 2 2 2 1 1 1 1 1
5 4 5 5 5 5 4 4 4 4 4 4 4 4 4 3 3 3 3 2 2 2 3 3 2 2 2 2 1 1 0 1
4 4 4 4 4 4 4 5 4 4 3 4 3 3 3 3 2 2 2 2 2 2 2 2 2 2 2 2 2 1 1 0
4 4 4 5 4 4 4 4 4 4 3 3 3 3 3 2 2 1 1 1 1 1 1 1 1 1 1 1 1 1 2 1
5 5 5 5 4 3 4 3 3 3 3 2 2 3 2 2 1 1 1 1 1 1 1 1 1 1 1 1 1 1 1 1
5 4 4 4 5 4 3 2 2 2 3 3 3 2 2 2 1 1 1 0 0 -0 -0 -0 -0 -0 -0 0 -0 0 0 0
5 4 3 4 4 3 3 2 2 3 3 2 2 2 1 0 -0 -1 -0 -1 -1 -1 -1 -1 -1 -1 -0 -1 -0 -1 -1 -1
4 3 3 4 4 3 3 2 2 2 2 2 1 0 -0 -1 -1 -2 -1 -2 -1 -1 -1 -1 -1 -1 -0 -1 -1 -1 -2 -2
4 3 3 3 3 3 2 1 2 1 1 0 -0 -1 -1 -2 -2 -2 -2 -2 -2 -1 -2 -2 -2 -1 -1 -2 -2 -2 -2 -3
4 4 1 2 2 2 1 1 1 0 -1 -1 -1 -1 -2 -2 -3 -3 -2 -2 -2 -3 -3 -3 -3 -3 -3 -3 -3 -3 -3 -3
4 3 2 2 1 1 1 -0 -0 -1 -1 -1 -1 -1 -3 -3 -3 -3 -3 -3 -3 -3 -4 -4 -4 -4 -4 -4 -4 -3 -3 -4
3 2 1 1 -0 -1 -1 -1 -1 -2 -2 -2 -2 -3 -2 -2 -2 -2 -3 -4 -5 -5 -5 -6 -5 -5 -5 -5 -5 -5 -4 -4
1 1 1 1 0 -0 -1 -0 -0 -1 -1 -1 -2 -2 -2 -2 -3 -4 -5 -6 -5 -6 -6 -7 -6 -6 -6 -6 -6 -6 -6 -5
1 1 1 1 1 1 0 -0 -1 -1 -2 -2 -3 -3 -5 -6 -6 -6 -6 -7 -7 -7 -6 -6 -7 -7 -7 -8 -8 -8 -9 -9
1 1 1 1 0 -1 -1 -1 -2 -2 -2 -4 -5 -5 -5 -5 -5 -6 -7 -7 -7 -7 -7 -8 -8 -8 -9 -10 -10 -10 -10 -11
1 1 -1 -1 -2 -2 -2 -2 -3 -3 -5 -5 -5 -5 -6 -6 -7 -8 -7 -8 -8 -8 -9 -9 -10 -10 -11 -12 -12 -13 -12 -12
-1 -2 -2 -2 -2 -3 -3 -4 -5 -5 -5 -6 -6 -6 -7 -7 -8 -8 -9 -9 -10 -10 -10 -10 -11 -12 -12 -13 -13 -13 -13 -13

GFSFLT2_700_temp_015.txt.gz
Temp
6 6 6 6 6 6 6 6 6 6 6 5 5 4 4 4 4 4 4 4 4 3 3 3 3 2 2 2 2 2 2 3
6 6 6 6 6 6 6 6 6 5 5 5 4 4 4 4 4 4 4 4 3 3 3 2 2 2 2 2 2 2 2 2
6 6 6 6 6 6 6 5 5 5 5 5 4 4 4 4 4 4 4 3 3 3 3 3 2 2 2 1 1 2 1 1
5 5 5 5 5 5 5 5 5 5 5 4 4 5 4 4 4 3 3 3 2 2 2 2 2 2 2 1 1 1 1 1
4 4 5 5 5 5 5 5 4 4 4 4 4 4 4 4 3 3 2 2 2 2 2 2 2 2 2 2 1 1 1 1
4 5 5 4 4 4 4 4 4 4 4 4 4 4 3 3 2 2 1 1 1 1 0 0 0 1 1 1 1 1 1 1
5 5 4 4 5 4 4 4 4 4 4 3 3 3 2 2 1 1 1 0 -0 -0 -0 -0 -0 -0 -0 0 1 1 1 1
5 4 4 4 4 4 4 4 4 4 3 3 2 2 2 1 1 1 0 -0 -0 -1 -1 -1 -0 -0 0 -0 -0 -0 0 0
3 4 4 4 3 3 4 4 3 3 2 2 2 2 2 1 1 0 0 -0 -1 -1 -1 -1 -1 -0 -0 0 0 -0 -0 -1
3 3 3 3 2 2 2 3 2 2 2 2 1 1 1 1 0 -0 -1 -1 -1 -2 -2 -1 -1 -1 -1 -1 -1 -1 -1 -1
3 3 2 2 2 1 1 2 2 1 1 1 1 0 -0 -1 -1 -1 -2 -2 -2 -2 -2 -2 -2 -2 -2 -2 -2 -2 -2 -1
3 2 2 2 2 2 1 1 1 1 1 0 -0 -1 -1 -1 -2 -2 -3 -2 -2 -2 -2 -2 -2 -2 -3 -3 -3 -3 -3 -3
2 3 3 2 2 2 1 1 1 -0 -0 -1 -1 -2 -1 -2 -2 -2 -2 -2 -3 -3 -2 -3 -3 -3 -3 -3 -4 -4 -4 -4
3 2 2 1 1 1 0 0 -1 -1 -1 -2 -2 -3 -3 -3 -3 -3 -2 -2 -2 -2 -4 -4 -4 -5 -5 -4 -4 -4 -4 -4
3 2 1 0 -0 -1 -2 -1 -2 -2 -2 -2 -2 -2 -2 -2 -2 -2 -3 -4 -5 -5 -5 -6 -6 -6 -6 -6 -6 -6 -6 -6
1 1 0 -0 -1 -1 -2 -1 -1 -1 -1 -1 -1 -1 -2 -2 -4 -5 -5 -6 -6 -6 -6 -7 -7 -7 -7 -7 -7 -8 -7 -7
1 1 0 -0 0 0 -0 -1 -1 -1 -1 -2 -3 -5 -5 -6 -5 -5 -7 -6 -7 -7 -8 -8 -8 -8 -8 -8 -8 -8 -8 -9
1 0 0 0 -0 -1 -1 -2 -2 -2 -3 -3 -5 -5 -5 -6 -5 -6 -7 -8 -8 -8 -9 -9 -9 -10 -10 -9 -10 -10 -11 -11
0 -0 -1 -1 -2 -2 -2 -2 -3 -3 -3 -4 -6 -6 -7 -6 -7 -7 -9 -9 -10 -10 -10 -10 -10 -10 -10 -11 -12 -12 -13 -13
-1 -1 -1 -2 -2 -2 -2 -3 -3 -3 -4 -5 -6 -6 -7 -7 -8 -9 -10 -11 -11 -12 -11 -11 -10 -10 -12 -14 -13 -14 -14 -14

GFSFLT2_700_temp_021.txt.gz
Temp
5 5 5 5 5 5 5 5 5 5 5 4 4 4 4 4 3 3 3 3 3 3 3 2 2 2 2 2 2 2 2 2
5 5 5 5 5 5 5 5 5 4 4 4 4 4 4 3 3 3 3 3 3 2 2 2 2 2 2 2 2 1 1 2
5 5 5 5 5 5 5 4 4 4 4 4 4 3 3 3 3 3 3 2 2 2 2 1 2 2 2 2 1 1 1 1
5 4 5 4 4 4 4 4 4 3 3 3 3 3 3 2 2 2 2 2 2 2 1 1 1 1 1 2 2 2 2 2
4 4 4 4 4 4 3 3 3 3 3 3 3 3 3 2 2 1 1 1 1 1 1 1 1 1 1 1 1 1 2 2
4 4 4 3 3 3 3 3 2 2 2 2 2 2 2 1 1 1 1 1 0 0 0 0 0 1 1 1 1 1 1 1
4 3 3 3 3 2 2 2 2 2 2 2 2 1 1 1 1 1 0 -0 -0 -1 -1 -0 -1 -0 0 0 0 0 1 1
3 3 3 3 2 2 2 2 1 1 2 2 1 1 1 1 1 0 -0 -1 -1 -2 -2 -1 -1 -1 -0 -0 -0 0 0 0
3 3 3 3 2 2 1 0 0 -0 2 1 0 0 1 0 -0 -1 -1 -1 -2 -2 -2 -2 -2 -2 -1 -1 -1 -1 -1 -1
3 3 3 2 2 1 0 1 1 1 0 0 -0 -0 -0 -0 -2 -1 -1 -2 -2 -2 -2 -2 -2 -2 -2 -2 -2 -2 -2 -2
3 3 3 2 1 1 1 1 0 0 0 0 -0 -1 -1 -1 -2 -2 -2 -2 -2 -2 -2 -2 -2 -2 -2 -2 -2 -2 -3 -3
3 3 2 1 0 1 1 0 0 -0 -0 -0 -1 -1 -1 -1 -1 -1 -2 -2 -2 -2 -2 -2 -3 -2 -2 -2 -2 -3 -3 -3
3 3 2 1 1 1 1 1 -1 -1 -1 -1 -1 -1 -1 -2 -2 -2 -2 -2 -2 -2 -3 -3 -3 -3 -3 -2 -3 -3 -4 -5
3 2 2 2 1 1 0 -1 -1 -1 -1 -1 -2 -2 -2 -1 -2 -2 -2 -3 -3 -3 -3 -3 -3 -3 -4 -4 -4 -5 -5 -6
3 2 1 1 0 -1 -1 -1 -1 -1 -1 -1 -1 -1 -1 -2 -2 -3 -3 -3 -4 -4 -4 -5 -5 -6 -7 -8 -8 -8 -8 -8
2 2 1 -0 -1 -1 -1 -1 -1 -1 -1 -2 -2 -2 -2 -2 -2 -3 -4 -5 -5 -6 -6 -7 -7 -8 -9 -10 -10 -10 -11 -10
2 1 0 -0 -1 -1 -1 -1 -1 -2 -2 -2 -2 -3 -3 -4 -5 -5 -6 -6 -7 -7 -7 -8 -9 -10 -11 -11 -11 -11 -11 -11
1 1 0 -1 -1 -1 -2 -2 -2 -2 -2 -3 -3 -3 -4 -5 -5 -5 -6 -6 -7 -8 -10 -10 -11 -12 -12 -12 -12 -12 -12 -12
1 0 -0 -1 -2 -2 -3 -3 -3 -3 -3 -3 -3 -4 -4 -5 -6 -7 -8 -8 -10 -11 -11 -12 -12 -12 -12 -12 -12 -13 -13 -13
0 -0 -1 -1 -2 -2 -3 -3 -3 -3 -3 -4 -4 -5 -6 -7 -7 -8 -8 -9 -10 -11 -12 -12 -13 -13 -13 -13 -14 -14 -14 -15

GFSFLT2_700_temp_024.txt.gz
Temp
4 5 4 5 5 4 4 4 5 4 4 4 4 4 3 3 3 3 3 3 3 3 2 2 2 2 2 2 2 2 2 2
4 4 5 5 4 4 4 4 4 4 3 3 3 3 3 3 3 2 3 3 3 2 2 2 2 1 1 1 1 2 1 1
5 5 4 4 4 4 4 4 4 3 3 3 3 3 3 2 2 2 2 2 2 2 2 2 2 2 2 1 1 1 1 1
5 4 4 4 4 4 4 4 3 3 3 2 3 2 2 2 2 2 2 2 2 2 2 1 1 1 1 1 1 1 1 1
4 4 4 4 4 4 3 3 2 2 2 2 2 2 2 2 1 1 1 1 1 1 1 1 1 1 1 1 1 1 1 1
4 4 4 3 3 3 3 2 2 2 2 2 2 2 1 1 1 1 0 0 -0 -0 0 0 1 1 1 1 2 1 1 1
3 3 3 3 3 3 2 2 2 2 2 1 1 1 1 1 1 0 -0 -1 -1 -1 -0 -0 0 1 1 1 1 1 1 1
3 3 3 3 3 2 2 2 2 2 2 1 -0 -0 -0 -1 -0 -0 -0 -0 -1 -0 -1 -1 -0 -0 -1 -0 -0 -0 0 0
3 3 3 3 3 2 1 1 1 1 1 0 -0 -0 -0 -1 -1 -1 -1 -1 -1 -0 -1 -1 -1 -1 -1 -1 -1 -1 -1 -0
3 3 2 1 0 1 -0 -0 1 0 0 -0 0 -0 -0 -1 -1 -0 -0 -1 -1 -0 -1 -1 -1 -1 -1 -1 -1 -1 -1 -1
3 3 2 2 1 0 1 0 0 0 -0 -0 -0 -0 -1 -0 -0 -0 -1 -1 -1 -1 -2 -2 -2 -2 -2 -2 -2 -2 -2 -2
3 3 2 2 1 1 2 1 1 0 0 0 0 -0 -0 -0 -0 -1 -1 -2 -2 -2 -2 -3 -3 -3 -2 -2 -2 -2 -1 -2
3 3 3 2 2 1 1 1 0 0 -0 -1 -1 -1 -1 -1 -2 -2 -2 -2 -2 -2 -3 -3 -3 -3 -3 -3 -3 -4 -3 -3
3 3 2 2 1 1 0 0 -0 -1 -1 -1 -1 -1 -1 -2 -2 -2 -2 -2 -3 -3 -3 -4 -4 -4 -4 -4 -5 -6 -8 -9
3 3 2 1 1 0 -0 -1 -1 -2 -2 -2 -2 -2 -2 -2 -2 -3 -3 -3 -4 -4 -5 -5 -5 -6 -6 -7 -7 -8 -8 -9
3 2 1 1 0 -0 -1 -1 -2 -2 -2 -2 -2 -2 -3 -3 -3 -4 -4 -5 -5 -5 -5 -6 -6 -7 -8 -9 -10 -10 -11 -11
2 2 1 0 -0 -1 -1 -1 -2 -2 -2 -2 -2 -3 -3 -4 -4 -4 -4 -5 -5 -6 -6 -7 -8 -10 -11 -11 -12 -12 -13 -14
2 1 0 -0 -1 -1 -1 -2 -2 -2 -2 -2 -3 -3 -4 -4 -4 -5 -6 -6 -7 -8 -8 -10 -11 -11 -12 -12 -14 -15 -15 -15
1 1 0 -1 -1 -1 -1 -2 -3 -2 -3 -3 -3 -4 -4 -5 -6 -6 -7 -8 -8 -9 -10 -10 -11 -12 -13 -14 -14 -15 -15 -16
0 -0 -0 -1 -1 -2 -2 -2 -3 -3 -3 -4 -4 -5 -5 -6 -7 -7 -8 -8 -9 -10 -11 -12 -13 -13 -14 -14 -15 -15 -16 -16

GFSFLT2_700_temp_027.txt.gz
Temp
3 4 4 4 4 5 5 5 4 4 4 4 3 3 3 3 3 3 3 3 3 3 2 2 2 2 2 1 2 2 2 1
4 4 4 4 4 5 4 4 4 4 3 3 3 3 3 3 2 3 2 2 2 2 2 2 2 2 2 2 2 2 2 -0
4 4 4 4 4 4 4 4 3 3 3 3 3 3 2 2 2 2 2 2 2 1 1 1 1 1 2 2 2 1 1 1
4 4 4 3 4 4 4 4 3 3 3 3 3 2 2 2 2 1 1 1 1 0 0 1 2 0 0 1 1 1 1 1
4 4 4 4 4 4 4 3 3 3 2 2 2 2 2 2 1 1 1 0 -0 -0 1 0 1 1 1 2 2 1 1 1
4 4 4 4 4 3 3 1 3 2 2 2 2 2 1 1 -1 0 0 0 0 0 -1 0 1 1 2 2 1 1 1 1
4 4 4 3 3 3 3 3 2 2 2 2 2 1 1 0 -0 -1 -1 -1 -0 -0 0 -0 0 1 1 1 1 1 0 0
4 4 3 3 3 3 2 1 2 2 2 2 2 0 1 1 -0 -0 -0 -1 -0 0 0 0 -0 -0 -0 -0 -0 -0 -0 0
4 4 4 3 3 3 2 1 2 3 2 2 2 1 2 0 -0 -1 -1 -0 -0 0 0 -0 -1 -1 -1 -1 -0 -0 -1 -1
4 4 3 3 2 1 1 1 1 1 1 1 1 0 0 -0 -0 -0 -0 -0 -0 -0 -1 -1 -1 -1 -1 -1 -1 -1 -1 -1
4 3 3 2 2 1 1 1 0 0 0 0 0 -0 0 0 0 0 -0 -0 -1 -0 -1 -1 -1 -1 -1 -1 -1 -1 -1 -1
4 4 3 2 2 1 2 1 0 0 0 0 -0 0 0 0 0 -0 -1 -1 -1 -1 -1 -1 -2 -2 -2 -1 -1 -2 -3 -3
4 3 3 2 2 2 2 1 0 0 0 -0 0 -0 -0 -1 -1 -1 -1 -1 -1 -2 -2 -2 -2 -2 -2 -3 -2 -3 -4 -5
3 3 2 2 2 1 0 -0 0 0 0 -0 -0 -1 -1 -1 -1 -2 -2 -2 -2 -3 -3 -3 -3 -4 -4 -4 -4 -4 -5 -8
4 3 3 2 1 1 0 0 -0 -1 -1 -1 -1 -1 -2 -2 -2 -2 -2 -3 -3 -4 -4 -4 -4 -5 -5 -6 -6 -7 -8 -8
3 3 2 2 1 0 0 -1 -2 -2 -3 -2 -2 -2 -2 -2 -2 -3 -3 -4 -4 -4 -5 -5 -5 -6 -7 -8 -9 -11 -12 -11
3 2 2 1 1 -0 -1 -1 -2 -2 -2 -3 -2 -2 -2 -3 -3 -3 -4 -4 -4 -5 -5 -5 -6 -7 -8 -11 -12 -13 -13 -13
3 2 1 1 0 -0 -0 -1 -1 -1 -1 -3 -3 -3 -3 -4 -4 -4 -5 -5 -5 -6 -7 -8 -8 -9 -11 -13 -13 -14 -14 -14
2 1 1 0 0 -0 -1 -1 -1 -2 -2 -2 -2 -3 -4 -4 -4 -5 -5 -6 -7 -7 -8 -10 -10 -11 -12 -13 -13 -14 -15 -15
1 1 1 0 -0 -1 -1 -2 -2 -2 -3 -2 -3 -3 -4 -4 -5 -5 -6 -6 -7 -8 -9 -11 -12 -12 -12 -12 -13 -14 -14 -15

GFSFLT2_700_temp_030.txt.gz
Temp
3 2 2 3 3 3 3 4 4 4 4 4 4 3 3 3 3 3 3 2 2 2 2 2 2 2 1 1 2 2 1 1
2 2 4 3 4 4 3 4 4 4 4 3 3 3 3 3 3 2 2 2 2 2 1 2 2 2 2 2 2 1 1 1
4 2 3 3 4 4 3 4 4 4 3 3 3 3 3 3 2 2 2 1 1 1 2 1 1 1 2 2 2 2 1 1
3 3 3 4 4 4 3 4 3 3 3 3 3 3 3 3 2 2 1 1 1 1 0 1 1 1 1 2 1 1 1 1
3 4 4 4 4 3 4 3 3 3 3 3 3 3 2 2 2 1 1 1 1 1 -0 0 1 1 1 1 2 2 1 1
4 4 4 4 4 4 3 4 3 3 3 3 3 3 2 1 2 1 1 0 -0 -0 -0 0 0 0 1 1 1 2 1 1
4 4 4 4 4 4 4 4 3 3 3 3 3 2 2 2 1 0 0 0 -1 -1 0 -0 -0 -0 -0 0 0 1 1 1
5 5 4 4 4 4 4 3 3 3 4 3 2 2 1 2 0 0 -0 0 -0 0 0 -0 0 0 0 0 -0 0 0 -0
4 4 4 4 3 3 3 3 3 3 3 2 2 1 0 1 1 1 -0 1 1 0 -0 0 0 0 0 -0 -0 -0 -0 -1
4 4 4 3 3 2 2 2 2 2 3 2 2 2 1 1 0 -0 0 1 0 0 0 0 1 0 0 -0 -0 -0 -1 -1
4 4 4 3 2 2 2 1 2 1 1 2 2 1 0 1 0 1 1 0 0 1 0 0 0 -0 -1 -1 -1 -1 -1 -1
4 4 3 3 2 2 2 2 2 1 2 1 0 0 0 0 1 1 0 0 0 -0 -0 -0 -1 -1 -1 -1 -1 -1 -1 -2
4 3 3 2 2 2 2 2 2 2 1 1 1 1 1 0 0 0 0 0 -0 -1 -1 -1 -1 -1 -1 -1 -1 -1 -2 -3
4 4 3 3 2 2 2 2 1 1 1 1 1 0 0 -0 -0 -1 -1 -1 -1 -1 -1 -2 -2 -2 -3 -2 -2 -2 -3 -3
4 4 4 3 3 2 2 1 1 0 0 1 0 -0 -1 -1 -1 -1 -1 -1 -2 -2 -2 -2 -3 -3 -4 -4 -4 -4 -5 -6
4 4 4 3 2 2 1 -0 -0 0 0 0 -0 -1 -2 -1 -2 -2 -2 -2 -2 -3 -3 -3 -4 -4 -5 -6 -7 -8 -8 -8
4 4 3 3 1 1 1 -0 -0 -0 -1 -1 -2 -2 -2 -2 -2 -2 -3 -3 -3 -3 -3 -4 -4 -5 -6 -7 -8 -9 -11 -11
4 3 3 2 2 1 0 0 -0 -1 -1 -2 -2 -2 -2 -3 -3 -3 -4 -4 -4 -4 -5 -5 -6 -7 -8 -9 -11 -12 -12 -13
3 3 3 2 2 1 0 -0 -1 -1 -1 -2 -3 -3 -2 -3 -4 -4 -4 -4 -4 -5 -6 -7 -8 -8 -10 -11 -12 -12 -13 -13
3 3 2 2 1 1 0 -0 -1 -1 -1 -2 -3 -3 -3 -3 -4 -4 -4 -5 -5 -6 -7 -8 -8 -10 -11 -11 -12 -12 -12 -13

GFSFLT2_700_temp_033.txt.gz
Temp
3 3 2 2 2 3 4 5 5 4 4 4 4 4 4 4 3 3 3 3 3 3 2 2 2 2 2 2 1 1 1 2
2 2 2 2 2 3 4 4 4 4 4 4 4 4 4 4 3 3 3 3 2 2 2 2 2 2 2 2 2 1 1 1
2 2 1 2 3 3 4 4 4 4 4 4 4 4 4 3 3 3 3 2 2 2 2 2 1 1 2 2 2 1 1 1
2 2 2 3 3 4 4 4 4 4 4 4 4 4 3 3 3 3 2 2 1 2 2 1 1 1 1 2 1 1 1 1
2 3 2 3 4 4 5 4 4 4 4 4 4 3 4 3 2 2 1 1 1 1 1 1 1 1 1 2 2 2 2 2
3 3 4 4 4 4 5 5 4 4 4 3 4 4 3 3 2 1 2 0 -0 0 -0 0 1 1 1 1 1 1 1 1
3 3 3 4 4 5 5 5 5 4 4 4 3 3 2 2 1 1 0 0 -0 -0 0 1 1 1 1 0 0 1 1 0
4 4 4 5 4 4 4 4 4 4 3 3 3 3 1 1 1 1 -0 -0 -0 0 0 1 1 1 0 0 0 0 0 -0
4 4 4 4 4 4 3 3 3 3 3 4 4 2 1 0 1 1 0 0 -0 1 1 1 0 0 1 1 1 1 0 -0
5 4 4 3 3 3 2 3 2 2 2 3 2 2 1 1 1 1 1 1 1 1 1 1 1 1 1 1 1 1 1 0
5 4 4 3 3 3 3 3 2 2 2 2 2 2 1 2 1 1 1 1 1 1 1 1 1 1 1 1 0 0 0 0
5 4 4 4 3 3 3 2 3 3 3 2 1 1 2 1 1 1 1 0 0 1 1 1 1 1 1 0 0 -0 -0 -1
5 4 4 4 3 3 3 2 2 2 2 1 1 1 1 1 1 0 1 1 0 0 0 -0 -0 -0 -0 -0 -0 -1 -1 -1
5 4 3 3 3 3 2 1 1 2 1 2 1 1 0 0 -0 -0 -0 -0 -1 -1 -1 -1 -1 -1 -1 -1 -1 -1 -1 -2
5 4 3 3 3 3 3 2 2 1 1 1 1 0 0 -0 -1 -1 -1 -1 -1 -2 -1 -1 -1 -2 -2 -3 -2 -2 -2 -3
5 4 4 4 4 3 3 2 1 1 1 0 -0 -0 -1 -1 -2 -2 -2 -2 -2 -2 -2 -2 -2 -3 -4 -4 -5 -5 -5 -4
5 4 4 4 3 3 3 2 1 1 0 -0 -1 -2 -2 -3 -2 -2 -2 -2 -2 -2 -3 -3 -3 -3 -4 -4 -5 -6 -7 -7
5 4 4 4 3 3 2 1 1 1 0 -1 -1 -2 -2 -2 -2 -2 -2 -3 -3 -4 -4 -4 -4 -5 -5 -6 -7 -8 -9 -11
4 4 4 3 3 2 2 1 1 -0 -1 -1 -2 -2 -2 -3 -3 -3 -3 -4 -4 -4 -4 -5 -6 -6 -7 -7 -8 -10 -11 -12
4 4 3 3 2 2 1 1 0 -0 -0 -1 -2 -2 -2 -3 -3 -4 -4 -5 -5 -5 -5 -6 -6 -7 -8 -9 -10 -11 -12 -12

GFSFLT2_700_temp_036.txt.gz
Temp
3 3 3 1 0 1 4 4 4 4 4 5 5 5 5 4 4 4 4 4 3 3 3 3 3 2 2 2 2 2 2 2
3 3 1 1 2 1 2 4 4 4 4 4 5 5 4 4 4 4 3 3 3 3 3 3 2 2 3 3 2 2 1 1
2 2 2 3 1 2 3 3 4 4 4 4 4 4 4 4 3 3 3 2 2 2 2 2 2 2 3 2 2 1 1 1
2 3 2 2 2 3 3 4 4 4 4 4 3 4 3 3 3 3 3 2 1 2 2 1 1 2 2 2 2 2 2 2
2 2 2 2 2 3 3 3 4 4 4 3 3 3 3 3 3 2 2 2 1 1 1 1 1 2 2 2 2 2 2 2
3 2 2 2 3 3 4 4 4 4 4 3 3 3 3 3 2 2 2 1 1 1 1 1 1 1 1 1 1 1 1 2
4 3 3 4 4 4 4 4 4 4 3 3 3 3 3 2 1 1 1 1 1 0 1 0 0 0 0 0 1 0 1 1
3 4 4 3 4 4 4 4 4 3 3 3 3 2 2 1 1 1 1 0 0 -0 -0 0 0 0 0 0 0 0 1 1
4 4 4 4 4 3 3 3 3 3 3 3 3 2 2 1 1 1 1 1 1 1 1 1 0 0 0 1 1 1 1 1
4 4 4 3 3 4 3 3 3 2 3 2 2 2 1 1 1 1 1 1 1 1 0 0 0 1 1 0 0 0 0 -0
5 4 4 4 4 4 3 3 3 3 3 3 3 2 1 2 1 1 2 1 1 1 1 1 1 1 1 1 0 -0 -0 -1
4 4 4 4 4 3 3 3 3 3 3 2 3 2 2 2 1 2 1 1 0 1 1 1 1 1 0 -0 -1 -1 -1 -1
4 4 4 4 4 3 3 3 3 3 2 2 2 2 2 2 1 1 0 0 -0 0 0 0 -0 -1 -1 -1 -1 -1 -1 -2
4 4 4 4 3 3 3 3 3 3 2 2 2 2 1 1 1 1 -0 -0 -1 -1 -1 -1 -1 -1 -1 -1 -2 -1 -1 -2
4 4 4 3 3 3 4 4 3 3 2 2 2 1 1 0 0 -0 -1 -2 -2 -1 -2 -2 -2 -2 -2 -2 -2 -2 -2 -2
4 4 4 3 3 3 4 3 3 2 2 1 0 0 -0 -0 -1 -1 -1 -2 -1 -2 -2 -2 -2 -3 -3 -3 -3 -4 -4 -3
3 3 4 3 3 4 3 3 2 2 1 0 -0 -1 -0 -1 -2 -2 -3 -3 -3 -3 -3 -3 -3 -4 -4 -4 -4 -4 -5 -5
4 4 4 4 4 3 3 2 2 1 1 0 -0 -0 -1 -2 -2 -2 -3 -3 -4 -3 -3 -3 -4 -5 -5 -5 -5 -5 -6 -7
4 4 4 4 3 3 2 2 1 1 0 -0 -1 -1 -2 -2 -2 -3 -4 -4 -4 -5 -4 -5 -5 -5 -6 -6 -7 -7 -8 -8
4 4 4 4 3 2 2 1 1 -0 -1 -1 -2 -2 -2 -2 -3 -3 -4 -3 -5 -6 -5 -5 -6 -6 -7 -7 -8 -8 -9 -10

GFSFLT2_700_temp_039.txt.gz
Temp
4 4 3 3 3 4 3 4 4 4 4 4 4 4 4 4 4 4 5 4 3 3 3 2 2 3 3 3 3 3 3 3
4 4 2 1 2 2 2 3 3 3 3 4 4 3 3 3 4 4 4 4 3 2 2 3 2 2 2 2 2 3 3 2
2 2 1 0 -0 2 2 3 3 3 3 3 3 3 3 3 3 3 3 3 3 2 2 3 2 2 2 2 2 2 2 2
2 1 1 1 2 3 2 3 3 3 3 3 3 3 3 3 3 3 3 3 3 2 2 2 1 2 2 2 2 2 2 2
1 2 2 2 2 2 2 3 3 3 3 3 2 2 3 3 3 3 3 2 2 1 1 1 1 1 2 2 2 2 2 2
1 1 1 2 2 2 2 2 3 3 2 3 2 2 2 2 2 2 2 1 1 1 1 1 0 1 1 1 1 1 1 1
2 2 2 3 3 2 3 2 2 2 2 2 2 2 2 2 2 1 1 1 1 1 1 0 0 0 0 -0 -0 -0 -0 0
3 4 3 3 3 3 3 3 3 3 2 3 2 2 2 2 1 1 1 1 0 0 1 0 -0 -0 -0 -0 -0 0 0 1
4 4 4 4 4 3 3 3 3 2 2 2 2 2 2 1 1 1 1 1 0 0 0 -0 -0 -0 -0 -0 0 1 1 1
4 4 4 4 3 3 3 3 2 2 2 2 1 1 1 1 1 1 1 0 -0 -0 -0 -1 -0 -0 -0 0 0 1 1 1
4 4 4 4 4 3 3 3 3 2 3 2 2 1 1 1 1 0 0 -0 -0 -0 -1 -1 -0 0 0 0 1 1 1 0
4 4 4 4 3 3 3 3 3 3 2 2 2 1 2 1 1 1 0 -0 -0 -1 -1 -1 0 0 0 0 0 0 -0 -1
5 4 4 4 3 3 3 3 3 3 2 2 2 1 1 1 1 0 0 0 -0 -0 -0 -0 -0 0 0 -0 -1 -1 -1 -1
5 4 4 4 3 3 3 2 3 3 3 2 2 1 2 1 1 1 0 -0 -0 0 -0 -1 -1 -1 -1 -1 -1 -2 -2 -2
5 4 4 3 3 3 3 3 3 3 2 2 1 1 1 1 1 0 -0 -0 -0 -1 -1 -1 -1 -2 -2 -2 -2 -2 -3 -3
5 4 4 3 3 3 3 3 3 2 2 2 1 1 1 1 0 -0 -1 -1 -1 -2 -3 -2 -2 -3 -3 -3 -3 -4 -4 -4
4 4 4 3 3 3 3 3 3 2 2 1 1 1 0 -0 -1 -1 -2 -2 -2 -2 -3 -3 -3 -3 -4 -4 -5 -5 -5 -5
4 3 3 3 3 3 3 3 2 2 1 1 1 0 -0 -1 -1 -2 -2 -2 -3 -3 -3 -4 -5 -5 -6 -5 -6 -6 -6 -7
4 3 3 3 3 3 3 2 2 1 1 1 0 -0 -1 -2 -2 -2 -2 -3 -3 -3 -4 -4 -6 -6 -7 -7 -7 -7 -8 -8
4 3 3 3 3 4 3 2 2 1 0 0 0 -2 -2 -2 -2 -3 -3 -3 -3 -5 -5 -5 -7 -8 -8 -8 -8 -8 -8 -9

GFSFLT2_700_temp_042.txt.gz
Temp
5 4 3 2 0 2 4 4 4 4 4 3 3 4 4 4 3 4 3 3 3 3 3 3 3 2 2 2 2 3 3 3
4 4 3 1 0 2 2 3 3 4 3 3 3 3 3 3 4 3 3 3 3 3 2 3 3 2 3 2 2 2 2 2
2 2 2 -0 1 2 2 1 3 2 2 3 3 3 3 3 3 3 3 2 3 2 2 2 2 2 2 2 2 2 2 1
2 3 0 1 1 -1 1 2 3 2 3 3 3 3 3 3 3 2 2 2 2 2 2 2 1 1 2 2 2 2 2 2
2 0 0 -0 -0 1 2 2 2 2 2 2 2 2 3 3 2 2 2 2 2 2 2 2 2 1 1 1 1 1 1 1
1 0 1 2 0 2 1 2 3 2 2 2 2 2 2 2 2 2 2 2 2 1 1 1 1 1 1 1 1 0 0 1
2 1 0 1 1 1 2 3 3 2 2 2 2 2 2 1 1 2 1 1 1 1 0 0 0 0 0 0 -0 -0 -0 0
1 2 2 2 3 3 3 3 2 2 2 2 1 1 1 1 1 1 1 1 0 -0 -0 -0 0 -0 -1 -0 -0 -0 0 0
2 3 4 3 4 3 3 3 2 2 2 2 1 1 1 1 1 0 -0 0 -0 -1 -0 -1 -1 -1 -1 -0 -0 0 -0 0
4 4 4 4 3 3 3 3 2 2 2 2 1 1 1 0 0 -0 -0 -1 -1 -1 -1 -1 -1 -1 -1 -1 -0 -0 0 0
4 4 4 3 3 3 3 2 2 2 2 1 1 1 1 0 0 0 -1 -1 -1 -1 -1 -1 -1 -1 -1 -1 -1 -0 0 0
4 4 4 4 3 3 3 3 2 2 2 2 2 1 1 -0 0 0 -1 -1 -1 -1 -1 -1 -1 -1 -1 -1 -1 -0 -0 -0
4 4 4 4 3 3 3 2 2 2 2 2 1 1 0 -0 0 -0 -0 -1 -1 -1 -1 -1 -1 -1 -1 -1 -1 -0 -1 -1
5 5 4 3 3 3 3 2 2 3 3 2 1 1 0 -0 0 0 -0 -1 -1 -1 -1 -1 -0 -1 -1 -1 -1 -1 -1 -2
5 4 4 4 3 3 3 3 3 3 2 1 1 0 0 1 0 -0 -0 -1 -1 -1 -1 -1 -1 -2 -2 -3 -2 -2 -2 -2
4 5 4 4 4 4 3 3 3 2 1 1 1 1 1 1 0 0 -0 -0 -1 -1 -1 -2 -2 -3 -3 -3 -3 -3 -3 -3
5 4 4 3 3 3 3 3 2 2 1 1 1 1 1 1 0 0 -0 -1 -1 -1 -2 -3 -3 -3 -3 -4 -4 -4 -5 -6
5 5 4 4 3 3 3 2 2 2 1 1 1 1 1 0 -0 -1 -1 -1 -2 -3 -3 -3 -4 -4 -4 -5 -5 -5 -6 -7
4 4 4 3 3 3 3 2 2 1 1 1 0 0 0 0 -0 -1 -1 -2 -3 -3 -4 -3 -4 -4 -5 -5 -6 -8 -8 -8
4 4 3 3 2 2 2 2 2 1 1 0 0 0 -0 -1 -1 -1 -2 -2 -2 -4 -4 -4 -3 -5 -5 -7 -8 -8 -9 -10

GFSFLT2_700_temp_045.txt.gz
Temp
5 4 4 3 1 3 3 4 4 3 4 4 5 4 4 3 3 3 3 3 3 2 2 3 3 2 2 3 2 2 3 3
4 4 3 3 -1 2 2 4 3 3 3 4 4 3 3 3 3 3 2 2 2 2 2 2 2 2 2 2 2 2 2 2
4 4 2 2 -2 1 2 3 2 2 3 3 3 3 3 3 3 3 2 2 2 2 2 2 2 1 1 1 1 2 2 2
4 2 2 1 -3 0 2 2 0 2 2 3 3 3 3 3 2 2 2 2 2 2 2 2 2 2 1 1 1 2 2 2
3 2 2 0 -1 1 1 0 1 1 2 3 3 3 2 2 2 2 2 2 1 1 1 1 1 1 1 1 1 1 1 1
2 2 1 0 -1 -1 0 -0 1 1 2 2 2 2 2 2 2 2 1 1 1 1 1 1 1 1 1 1 0 0 0 1
0 -0 1 1 -0 -1 0 1 1 1 2 2 2 2 1 2 1 1 1 1 1 1 0 0 0 0 0 0 -0 -0 -0 0
0 -0 -0 -1 -1 0 1 1 1 1 1 2 2 1 1 1 1 1 1 1 0 -0 -0 -0 -0 -0 -1 -1 -1 -0 -0 -0
1 1 1 1 2 1 1 1 2 2 2 1 1 1 1 1 1 1 0 -0 -0 -1 -1 -1 -1 -1 -1 -1 -0 -1 -1 -1
1 1 2 1 1 1 2 2 1 2 1 1 1 1 1 1 0 0 0 -0 -1 -1 -1 -1 -1 -1 -1 -1 -1 -1 -1 -1
2 2 2 2 2 2 2 2 2 2 2 1 1 1 1 0 0 0 0 -0 -1 -1 -1 -1 -1 -1 -1 -1 -1 -1 -1 -1
3 3 3 3 3 3 3 3 3 2 2 1 1 1 1 0 -0 -0 0 -1 -1 -1 -1 -1 -1 -1 -2 -2 -1 -1 -1 -1
4 4 3 3 3 3 3 3 2 2 2 1 1 1 1 0 -1 -0 -0 -0 -1 -1 -1 -1 -2 -2 -2 -2 -1 -1 -1 -1
4 4 4 3 3 3 3 3 2 2 3 2 1 1 0 -0 -0 0 0 -0 -0 -0 -1 -1 -2 -1 -2 -2 -2 -2 -2 -1
5 4 4 3 3 3 3 3 3 3 2 1 1 1 1 1 1 0 0 0 -0 -1 -1 -1 -2 -2 -2 -2 -2 -2 -2 -2
4 4 4 4 3 3 3 3 2 2 1 1 0 1 1 1 0 0 0 0 -0 -1 -1 -1 -1 -2 -2 -3 -3 -3 -3 -3
4 4 4 3 3 3 3 3 2 2 1 1 1 1 0 0 0 0 0 -0 -1 -1 -1 -1 -1 -2 -2 -3 -3 -3 -4 -4
4 4 4 3 3 2 3 2 2 2 1 1 1 1 1 0 0 0 -0 -0 -1 -2 -2 -2 -3 -3 -2 -4 -3 -4 -4 -5
5 4 4 3 3 3 3 2 2 2 1 1 1 1 1 -0 -0 -0 -1 -2 -2 -2 -2 -3 -3 -3 -3 -3 -4 -4 -5 -5
4 4 4 3 3 3 3 2 2 2 2 1 1 1 0 -1 -1 -1 -2 -2 -2 -3 -3 -3 -4 -4 -4 -4 -5 -6 -6 -7

GFSFLT2_700_temp_051.txt.gz
Temp
5 5 5 4 3 3 3 3 4 4 4 4 4 4 3 3 3 3 3 3 3 3 3 3 2 2 2 2 2 2 2 2
5 5 4 4 3 2 2 3 3 3 3 4 3 3 3 3 3 3 3 3 2 2 2 2 2 2 2 1 1 2 1 2
4 4 3 3 3 3 1 -0 0 2 2 2 2 3 3 3 3 3 2 2 2 2 2 2 2 2 1 1 2 2 2 2
4 4 4 2 2 2 3 -2 -0 1 1 1 1 2 2 2 2 2 2 2 1 2 1 2 2 1 1 1 1 1 2 2
3 4 4 3 3 2 2 -2 -2 -1 -0 -1 0 2 2 2 2 2 2 1 1 1 2 1 1 1 1 1 1 1 1 1
3 4 2 2 1 -0 -0 -1 -1 -1 -2 -0 1 1 2 1 2 2 1 1 1 1 1 1 1 1 1 1 1 1 1 1
2 3 2 1 0 -0 -1 -2 -2 -2 -1 0 1 1 1 1 1 1 1 1 1 1 0 1 1 1 1 1 1 0 1 0
2 1 -0 0 0 -0 0 -3 -3 -1 -1 0 1 1 1 1 1 1 1 1 0 0 0 0 1 1 0 1 0 0 0 -0
1 0 1 0 0 0 -1 -2 -1 -1 0 1 0 0 1 1 1 0 0 0 0 0 0 1 0 0 0 -0 0 0 -0 -0
1 -1 -1 -2 -0 0 -0 -0 -1 0 0 0 -0 0 1 1 1 0 0 0 1 1 1 1 0 0 -0 -0 -0 -1 -1 -0
2 1 1 -0 -0 -0 0 0 0 1 0 0 0 1 1 0 0 0 0 1 1 1 1 0 0 -0 -0 -1 -1 -1 -0 -0
2 2 1 1 1 1 0 1 1 0 1 1 1 1 1 1 1 0 0 1 1 1 1 0 0 -0 -1 -1 -1 -1 -1 -1
2 2 2 1 2 2 2 2 1 2 1 1 1 1 1 1 1 1 1 1 1 1 0 0 -0 -1 -1 -1 -0 0 -1 -1
4 3 3 2 2 2 2 2 2 2 2 2 2 1 1 1 1 1 0 1 1 1 0 -0 -1 -0 -1 -1 -1 -2 -3 -1
4 4 3 3 3 3 2 2 2 2 2 2 2 2 2 1 1 1 1 1 1 1 0 -0 -1 -0 -1 -1 -2 -2 -3 -3
4 4 3 3 3 2 3 3 2 2 2 2 2 1 1 1 1 1 1 1 1 0 0 -0 -1 -2 -1 -2 -3 -3 -3 -3
5 4 4 4 4 3 3 3 2 2 2 2 2 2 1 1 1 1 1 1 1 0 0 -0 -1 -1 -2 -2 -2 -3 -3 -3
5 4 4 4 4 4 3 3 3 3 2 2 2 2 2 1 1 0 0 0 -0 -0 -1 -0 -1 -1 -2 -2 -3 -4 -4 -4
5 5 5 5 4 4 3 3 2 3 2 2 2 2 2 1 1 1 0 0 -0 -0 -1 -1 -1 -1 -2 -2 -3 -3 -4 -4
5 5 5 4 3 1 3 3 3 3 3 2 2 1 2 1 1 1 0 0 0 -0 -1 -2 -2 -2 -2 -3 -3 -4 -4 -5

GFSFLT2_700_temp_057.txt.gz
Temp
6 5 5 4 4 4 2 3 4 4 4 5 4 4 4 3 3 3 3 3 3 3 3 3 3 3 3 3 3 3 3 3
5 5 5 4 5 4 2 2 3 4 4 3 4 4 3 3 3 3 3 3 3 3 3 3 3 3 2 3 3 2 3 3
5 4 5 5 4 4 2 1 3 3 2 3 3 3 2 2 2 2 2 2 2 2 3 3 3 2 2 2 3 2 3 3
5 4 4 4 4 3 4 1 1 1 2 2 2 2 1 1 1 2 2 2 2 2 2 2 2 2 2 2 2 2 2 2
4 4 4 3 4 3 3 2 2 1 1 1 1 0 -1 -0 0 1 2 2 2 2 2 2 1 1 1 1 2 1 1 2
6 3 4 3 3 3 3 2 1 0 1 1 -1 -1 -1 -1 0 1 2 2 2 2 1 2 2 2 1 1 1 1 1 1
3 4 4 2 3 3 2 2 0 0 -0 -1 -2 -1 -1 -1 1 1 1 1 1 1 1 2 2 1 1 0 0 1 1 1
2 2 2 3 2 2 2 1 1 -1 -2 -2 -1 -1 -1 0 1 1 1 1 1 1 1 1 1 1 1 0 1 0 1 1
2 1 2 2 2 2 1 1 0 -0 -2 -2 -2 -1 -1 0 0 1 1 1 2 2 1 1 1 1 0 1 1 1 0 1
1 2 1 1 1 0 -0 -0 -1 -1 -1 -2 -2 -1 -0 0 0 1 1 1 1 1 1 1 1 1 1 0 1 1 0 0
2 0 0 1 -0 -1 -0 -0 -0 -0 -2 -2 -0 -1 0 0 1 1 1 1 1 1 0 0 1 1 1 1 1 1 0 0
4 3 -0 -0 -1 -1 -1 -1 -1 -1 -1 -0 -0 -0 0 1 1 1 1 0 1 1 0 0 1 1 1 1 1 -0 0 0
4 4 4 3 3 2 1 1 -0 -0 -0 -0 0 1 1 1 1 1 1 0 1 1 1 1 1 1 0 0 0 0 0 -0
4 3 3 3 2 2 2 2 1 1 1 1 1 1 1 2 1 1 1 1 1 1 1 1 1 1 1 0 -0 -0 0 -0
5 4 3 3 2 2 2 1 1 1 1 1 1 1 2 1 1 1 2 1 1 2 1 0 0 0 1 0 0 0 -0 -1
5 4 5 4 4 3 3 3 2 2 2 2 2 2 2 1 1 1 2 1 1 1 1 0 -0 -0 -0 -0 -0 -1 -2 -2
5 5 4 4 4 4 3 3 3 2 2 2 2 2 2 2 2 1 1 1 1 1 0 0 -0 0 -0 -1 -1 -1 -1 -2
5 5 4 4 4 4 4 4 3 3 3 3 3 3 2 2 2 2 1 1 1 0 0 -0 -0 -0 -0 -0 -1 -1 -1 -2
6 5 5 5 4 4 4 4 3 3 3 2 2 2 2 2 2 1 1 1 1 -0 -1 -0 -0 -0 0 -1 -1 -1 -1 -2
6 6 5 5 5 5 4 4 3 3 3 3 2 3 2 2 2 1 1 1 0 1 0 1 -0 -1 -1 -1 -1 -1 -2 -2

GFSFLT2_700_temp_060.txt.gz
Temp
6 5 5 5 4 3 1 2 4 4 4 4 4 4 4 4 4 4 4 3 3 3 3 3 4 4 3 3 3 3 3 4
5 5 5 4 4 4 2 3 2 3 3 4 4 4 4 3 3 3 3 3 3 3 3 3 4 4 3 3 3 3 3 3
5 5 4 4 4 3 2 2 2 3 3 3 3 3 3 3 3 3 2 2 3 3 3 2 2 3 3 2 3 3 3 3
5 5 5 4 3 3 3 2 3 3 3 3 3 3 2 2 2 2 2 2 2 3 3 2 2 2 2 2 2 2 2 2
5 5 4 4 4 4 3 3 2 2 3 3 2 2 1 2 2 2 2 2 2 2 2 2 2 2 2 2 2 2 2 2
4 4 4 3 3 4 3 2 2 2 2 2 0 1 1 1 1 1 1 2 2 2 1 1 1 1 2 2 1 1 1 2
4 3 3 3 3 3 2 2 1 2 1 1 -0 0 0 -1 0 1 1 2 2 2 1 1 1 2 2 1 1 1 1 1
2 3 3 3 2 2 2 2 0 -0 0 1 0 -0 -1 -1 0 1 2 2 1 1 1 1 1 1 1 1 1 0 1 1
2 2 3 2 2 2 2 2 1 -0 -0 0 -1 -1 -1 -0 1 1 1 1 1 1 1 1 1 1 1 1 0 1 1 0
2 2 1 1 1 2 2 1 1 1 -2 -1 -1 -2 -1 0 0 1 1 1 1 1 1 1 1 1 1 1 1 0 1 0
2 1 2 1 1 1 1 1 1 0 -1 -1 -2 -1 -1 0 0 1 1 1 1 1 1 1 1 1 1 1 1 0 0 0
3 1 1 1 -0 -0 -0 -0 -0 -1 -1 -1 -1 -1 0 1 1 0 1 1 1 1 1 1 1 1 1 1 1 1 1 1
5 3 2 2 -1 -0 -0 -1 -1 -1 -1 -1 -1 -0 -0 0 1 1 2 1 1 0 1 1 0 0 1 1 1 1 1 0
4 4 4 4 3 1 -1 -1 -1 -1 -0 -1 1 -0 0 1 1 1 1 1 1 1 1 0 -0 -0 0 1 1 1 1 0
5 4 4 3 3 3 2 1 1 1 1 2 1 0 1 1 1 1 1 1 1 1 1 0 -0 -0 0 -0 -0 0 -0 -1
5 5 4 4 3 3 3 3 3 2 1 1 1 1 1 1 1 1 1 1 1 1 1 1 0 0 0 -1 -1 -1 -1 -1
5 5 5 4 4 4 3 3 3 2 2 2 1 2 2 1 2 1 2 2 1 1 1 1 0 -0 -1 -0 -0 -0 -1 -1
5 5 5 4 4 4 4 4 3 3 3 3 3 3 2 2 2 2 1 1 1 1 0 0 0 -1 -1 -0 -1 -1 -0 -1
5 5 5 5 5 4 4 4 4 3 3 3 3 3 3 3 2 2 2 1 1 1 0 0 0 0 -0 -0 -0 -1 -1 -1
6 6 5 5 5 5 4 4 4 3 3 3 2 2 2 2 2 2 1 0 1 0 1 1 0 -0 -0 -0 -1 -1 -2 -2

GFSFLT2_700_temp_063.txt.gz
Temp
5 5 5 5 4 4 4 3 3 2 3 4 5 5 5 5 5 4 4 4 4 4 4 4 3 3 3 3 3 3 3 3
3 4 4 4 3 3 4 3 1 2 3 3 4 4 4 4 4 4 4 4 4 4 4 3 3 3 2 3 3 3 3 3
4 4 4 4 3 3 3 1 2 1 2 3 3 3 4 4 4 3 3 3 3 4 4 3 3 2 2 3 3 2 3 3
4 4 4 5 4 3 2 1 2 2 1 1 0 3 3 3 3 3 3 3 3 3 3 3 3 2 2 3 2 3 3 3
5 4 4 4 3 4 3 3 2 1 2 0 2 2 3 3 3 3 3 3 3 3 3 2 2 2 2 2 2 3 2 2
4 4 3 3 3 3 2 3 3 2 1 0 1 2 3 2 2 3 3 3 3 2 2 2 2 2 2 2 2 2 2 2
2 3 3 3 3 2 3 3 2 1 1 1 1 2 2 1 2 2 2 3 2 2 2 2 2 1 1 2 2 2 2 2
2 3 3 3 3 3 3 2 1 1 2 0 1 1 1 1 1 1 2 2 2 2 2 1 2 2 1 2 2 1 1 1
2 2 1 2 2 3 2 1 1 1 1 -1 0 0 1 0 -1 0 1 2 2 2 1 1 1 1 1 1 1 1 1 1
2 2 1 1 2 2 2 2 1 -0 -0 -2 -0 -1 -2 -1 -1 -1 1 2 2 1 1 1 1 1 1 1 1 1 1 1
2 2 1 1 2 1 2 2 0 -1 -1 -2 -2 -2 -2 -2 -1 0 1 1 1 1 1 1 0 0 0 1 1 1 1 1
2 1 1 1 2 2 2 1 0 -0 -2 -2 -2 -2 -2 -1 -0 0 1 1 1 1 1 1 1 0 0 0 0 0 1 1
5 2 2 1 1 0 0 1 0 1 -1 -2 -2 -2 -2 -1 -0 0 1 1 1 0 1 1 1 0 0 -0 -0 0 1 1
5 5 3 2 1 -0 -0 -0 -0 0 -1 -1 -1 -2 -2 -1 -1 0 1 1 0 1 1 1 1 0 -0 -0 0 0 0 0
5 5 5 4 4 1 0 -1 -0 -1 -1 -1 -2 -2 -1 -1 -0 1 1 2 1 1 1 1 0 0 -0 -1 -0 -0 -0 -0
5 5 5 5 5 5 4 3 2 -1 -1 -1 -1 -2 -1 -0 1 1 1 1 1 1 0 0 0 -0 -0 -0 -0 -1 -0 -0
5 5 5 5 4 4 4 4 3 2 2 1 1 0 0 1 1 1 1 1 1 1 1 1 0 -0 -0 -0 -0 0 -0 -1
5 5 5 5 5 4 4 4 3 3 2 2 2 1 1 1 1 1 1 1 1 1 1 0 0 0 -0 -0 -0 -1 -0 -1
6 6 6 5 5 5 4 4 4 3 3 3 2 2 2 2 1 1 1 1 1 1 1 0 0 -0 0 0 0 -1 -0 -1
6 6 6 6 5 5 5 4 4 4 3 3 2 2 2 2 1 1 1 1 1 1 1 0 -0 -0 -0 -0 -1 -1 -0 -1

GFSFLT2_700_temp_069.txt.gz
Temp
4 3 3 4 4 4 3 3 3 3 2 3 3 4 4 4 4 4 4 4 4 4 4 4 4 4 4 4 4 4 4 4
4 4 3 3 3 3 3 3 3 3 2 3 3 4 4 3 3 4 4 3 3 3 4 4 4 4 3 3 3 3 3 4
4 3 2 3 3 3 3 3 3 3 2 1 2 3 3 3 3 3 3 3 3 3 4 4 4 4 3 3 3 3 3 3
4 2 2 2 3 3 3 2 2 2 2 1 2 2 3 3 3 3 3 3 2 3 3 3 3 3 3 3 3 3 3 3
4 3 2 1 1 1 1 1 1 1 2 0 1 2 2 3 2 2 2 2 3 3 2 3 3 2 2 2 3 3 3 3
4 3 3 3 1 2 2 2 2 2 2 -1 1 2 2 2 2 2 2 2 2 3 3 2 3 2 2 2 2 2 2 2
5 2 3 3 3 2 2 2 1 1 1 0 1 1 2 1 1 2 2 1 1 2 2 2 2 2 2 2 2 2 2 2
4 3 3 2 2 2 2 2 1 1 -0 1 1 0 1 0 1 1 2 1 1 1 2 2 2 2 2 1 1 2 2 2
5 3 2 2 2 2 2 2 1 1 1 -1 1 0 -0 0 0 1 1 2 2 1 2 2 1 1 1 1 1 1 1 1
4 3 2 2 2 2 2 2 1 1 1 0 -2 -2 -0 -0 0 1 1 2 1 1 2 1 1 1 1 1 1 1 1 1
5 2 2 2 1 1 2 0 1 1 1 0 -1 -1 -1 -1 -0 0 0 0 0 1 1 1 1 1 1 1 1 1 1 1
4 3 2 2 1 1 1 2 1 1 0 0 -1 -2 -1 -1 -1 -1 -1 -1 -0 -0 0 0 0 1 0 1 1 0 0 0
5 3 2 1 1 1 1 1 1 1 -0 0 -1 -1 -2 -1 -1 -2 -2 -1 -1 -2 -1 0 0 0 0 0 0 0 0 -0
5 4 2 1 2 1 1 1 1 1 1 0 -0 -1 -2 -2 -2 -2 -2 -1 -1 -1 -2 -0 0 -0 0 -0 0 0 0 -0
5 5 4 3 3 2 1 1 1 1 1 0 0 -1 -2 -2 -2 -2 -2 -1 -2 -2 -2 -1 0 -0 -0 -0 0 1 0 -0
5 5 5 5 4 4 1 0 1 1 1 0 -0 -1 -2 -2 -2 -2 -2 -2 -2 -2 -1 -1 0 0 -0 -0 -0 0 0 1
5 5 5 5 5 4 3 1 -0 0 0 -0 -0 -0 -1 -1 -2 -2 -1 -1 -1 -1 -1 -0 -0 -0 0 -0 -0 -0 0 -0
5 5 5 5 5 5 5 4 2 0 -0 -1 -1 -0 -1 -1 -2 -1 -2 -2 -1 -2 -1 -0 -0 0 -0 -0 -0 -0 0 0
6 5 5 5 5 5 5 5 4 3 1 -0 -1 -2 -2 -2 -2 -2 -1 -1 -1 -1 -0 -0 -0 0 -0 -0 -1 -0 -0 -0
6 6 6 5 5 5 4 4 4 4 4 3 3 1 -0 -1 -1 -1 -1 -0 -0 -1 -1 -1 -1 0 -0 0 -0 -1 -1 -1

GFSFLT2_700_temp_072.txt.gz
Temp
4 4 5 4 4 4 4 3 3 3 3 3 3 2 3 4 3 4 5 4 4 4 4 4 4 4 4 4 4 4 4 4
5 4 3 4 3 3 3 3 4 3 2 3 2 2 4 4 4 4 3 3 4 3 3 4 4 4 4 4 3 4 4 4
4 4 2 3 3 3 3 3 3 3 3 3 2 2 3 3 3 3 3 3 3 3 3 3 3 3 3 3 3 3 3 4
4 3 2 2 1 1 3 3 3 3 3 3 3 2 2 3 3 2 2 2 2 3 3 3 3 3 3 3 3 3 3 3
4 3 3 2 1 2 1 2 3 3 3 3 2 1 2 2 3 2 2 2 2 3 3 3 2 3 3 3 3 3 3 3
4 3 3 2 1 3 1 2 2 2 2 2 1 1 2 2 2 2 2 2 2 2 2 2 2 2 2 2 3 3 3 3
5 4 3 2 1 1 1 1 1 2 1 1 -1 1 1 1 2 2 2 2 1 2 2 2 2 1 2 2 2 2 3 2
5 3 2 2 2 2 1 2 2 1 0 0 -0 1 1 2 1 1 1 1 1 1 1 2 2 2 2 2 1 2 2 2
5 4 2 2 2 2 2 2 2 1 0 0 -2 -1 0 2 1 1 1 1 1 1 1 1 2 2 1 1 1 1 1 1
5 4 2 3 2 1 2 1 1 1 1 -1 -1 -1 -0 -0 0 1 1 1 1 1 0 1 2 2 1 1 1 1 1 1
5 4 2 2 2 2 2 1 1 1 1 -1 -1 -0 0 -1 0 1 1 1 1 0 -0 1 1 1 1 1 1 1 1 1
6 4 2 1 2 2 2 1 1 1 1 -0 -1 -2 -2 -1 -0 0 0 1 0 -0 -0 0 0 1 1 1 1 0 0 1
6 5 2 2 2 2 2 2 1 1 0 0 -0 -2 -1 -1 -1 -1 -1 -0 -0 -1 -0 -0 -0 0 0 0 0 0 0 0
6 6 3 2 2 2 1 1 2 1 1 0 -0 -1 -1 -1 -1 -2 -2 -2 -1 -2 -1 -1 -1 -1 -0 -0 -0 0 0 0
6 6 4 3 2 2 1 2 2 1 1 0 0 -1 -2 -1 -1 -1 -1 -2 -1 -2 -1 -2 -2 -1 -1 -0 -0 0 0 0
6 6 6 5 3 2 1 1 2 1 1 1 -0 -0 -2 -2 -1 -1 -1 -2 -1 -2 -2 -2 -2 -1 -1 -1 -0 0 0 0
6 6 6 6 5 4 2 1 1 1 1 0 0 -0 -1 -1 -1 -1 -1 -1 -1 -1 -2 -1 -1 -1 -1 -1 -0 0 -0 -0
6 6 6 6 5 5 4 4 2 1 1 1 0 -0 -0 -0 -0 -1 -1 -1 -1 -1 -2 -1 -1 -1 -1 -1 -0 -0 0 0
6 6 6 6 5 5 5 5 4 3 2 1 1 0 -0 -0 -0 -0 -1 -1 -1 -1 -1 -1 -1 -1 -1 -0 -0 -0 0 0
6 6 6 6 5 5 5 5 5 5 4 2 1 0 -0 -1 -0 -1 -0 -1 -1 -1 -1 -1 -1 -1 -1 -1 -1 -0 -0 -0

GFSFLT2_700_temp_075.txt.gz
Temp
5 5 5 5 5 5 4 4 4 4 4 4 4 3 4 4 4 5 5 4 4 4 4 4 4 4 4 4 4 4 4 4
5 5 5 4 5 4 3 3 4 3 3 3 3 3 3 3 4 4 4 3 4 4 4 3 4 4 3 3 4 4 4 4
6 5 5 4 4 4 4 4 3 2 3 3 3 2 2 3 3 3 2 3 3 4 4 3 3 4 3 3 3 3 4 4
5 5 4 4 4 3 3 3 3 4 3 3 3 3 1 3 2 3 3 3 3 3 3 3 3 3 3 3 3 3 3 3
5 5 5 4 4 4 4 2 2 2 3 3 3 1 2 2 2 2 2 2 3 3 2 2 3 3 3 3 3 3 3 3
5 5 5 4 3 3 2 1 2 3 3 3 1 1 1 0 2 2 2 2 2 2 2 2 2 2 2 2 2 2 3 3
6 5 5 3 2 3 3 2 3 2 3 2 1 2 1 1 1 2 2 2 2 2 2 2 2 2 2 2 2 2 2 2
6 5 5 3 2 2 2 2 2 2 2 1 2 1 -0 1 1 1 2 2 2 2 2 2 2 2 2 2 2 2 2 2
6 5 5 3 3 2 1 2 1 1 2 2 0 1 -1 -0 1 1 1 2 2 2 1 2 2 1 1 1 1 1 2 2
6 5 5 3 3 2 2 2 2 1 1 0 1 -1 -0 0 1 1 2 2 1 1 1 1 1 1 1 1 1 1 1 1
6 5 4 4 3 3 2 2 2 2 0 0 0 -1 -2 -0 0 1 1 1 1 1 1 1 1 1 1 1 1 1 1 1
6 6 4 3 3 2 2 2 2 1 1 1 1 -1 -2 -1 -1 -0 0 -1 1 1 1 1 0 1 1 1 1 0 0 0
6 6 5 3 3 2 2 2 2 1 1 1 -0 -2 -2 -1 -1 -1 -1 -1 0 1 0 0 -0 0 0 0 0 0 0 1
6 6 6 3 3 2 2 2 2 1 1 1 -1 -2 -1 -1 -1 -1 -1 0 -0 -0 -0 -0 -0 -0 -0 -0 0 0 0 0
6 6 6 4 3 3 2 2 2 2 1 1 1 -1 -2 -1 -1 -1 -1 -1 -1 -1 -1 -1 -1 -1 -0 0 -1 0 -0 0
7 6 6 6 4 4 3 2 2 2 2 1 1 0 -0 -1 -1 -1 -1 -1 -1 -1 -1 -0 -0 -1 -1 -0 -1 -1 -1 -1
7 6 6 6 5 5 4 2 2 2 1 1 1 0 -0 -1 -1 -1 -1 -1 -1 -1 -1 -1 -0 -1 -1 -1 -1 -1 -0 -1
6 6 6 6 6 5 5 4 3 2 2 1 1 1 0 -0 -1 -1 -1 -1 -1 -1 -1 -1 -0 -1 -1 -1 -1 -1 -0 -0
7 7 6 6 6 6 6 5 4 3 2 1 1 1 0 1 -0 -1 -1 -0 -1 -1 -0 -1 -1 -1 -1 -1 -1 -1 -0 -0
7 6 6 6 6 6 6 5 5 5 5 3 1 2 1 1 0 -0 -1 -1 -1 -1 -1 -1 -1 -1 -1 -1 -1 -0 -0 -0

GFSFLT2_700_temp_078.txt.gz
Temp
6 6 6 6 5 5 5 4 3 5 4 4 3 3 4 4 5 5 5 5 5 5 5 5 5 5 4 4 4 4 5 5
6 6 6 5 5 4 4 4 4 4 4 3 3 3 4 4 4 4 5 4 5 5 4 4 5 4 4 4 3 4 4 4
5 5 5 5 5 5 4 4 3 3 4 3 3 3 3 4 4 4 4 4 4 4 4 4 4 4 3 4 3 4 4 3
6 5 5 5 5 5 4 4 3 2 3 3 3 3 3 3 1 3 4 4 3 3 3 4 4 4 3 3 3 3 4 3
6 6 6 5 4 4 3 3 4 4 3 2 3 3 2 3 1 2 3 3 3 3 3 3 3 3 3 3 3 4 3 3
7 6 5 5 5 4 4 3 3 3 3 2 3 2 2 2 1 2 2 3 2 3 3 3 3 3 3 2 2 4 3 3
6 6 6 5 4 3 3 3 2 2 2 2 3 3 3 2 1 2 2 3 2 2 3 3 3 2 2 2 2 4 3 3
6 6 5 5 3 3 3 3 3 2 3 3 2 2 2 2 1 2 2 2 2 2 3 3 3 2 2 2 2 2 2 2
6 6 6 5 4 3 3 2 2 3 2 3 2 2 2 1 1 1 1 2 1 2 2 2 2 2 2 2 2 2 2 2
6 6 6 5 4 3 3 1 2 2 2 2 2 2 1 1 -0 -0 1 1 1 2 2 2 2 2 2 2 1 1 2 1
6 6 6 5 3 3 2 2 2 2 2 2 2 1 1 0 -1 -1 0 1 1 2 2 1 1 2 1 1 1 1 1 1
6 6 6 5 3 3 3 2 2 2 1 1 1 1 1 1 1 0 -0 1 1 1 1 1 1 1 1 1 1 1 0 1
6 6 6 5 3 3 3 3 2 1 1 1 2 1 1 0 -0 -1 -1 -0 1 1 1 1 1 1 1 1 1 1 0 0
7 6 6 5 4 4 3 3 2 2 1 1 1 1 0 -1 -1 -1 -1 -0 -0 0 0 -1 0 1 1 1 1 1 1 0
7 7 7 6 4 3 3 3 2 1 1 1 1 1 0 -0 -2 -1 -1 -0 -0 0 -1 -0 0 0 -0 1 1 0 -0 -1
7 6 7 6 6 4 4 3 3 2 2 1 1 1 1 -1 -1 -1 -1 -0 -1 -1 -0 -1 -1 -0 -0 0 0 -0 -1 -1
7 7 7 7 6 5 4 4 3 2 2 2 1 1 0 -1 -1 -1 -1 -1 -1 -1 -1 -2 -1 -1 -0 -0 -0 -1 -1 -0
7 7 7 7 6 6 5 5 4 3 2 1 1 1 1 1 1 0 -1 -1 -0 -1 -2 -1 -1 -1 -1 -1 -1 -1 -1 -1
7 7 7 6 6 6 6 5 5 4 3 2 1 1 1 1 1 1 -0 -1 -1 -1 -1 -1 -1 -1 -1 -1 -1 -1 -1 -1
7 7 7 7 7 6 6 6 6 5 4 3 2 1 1 1 1 0 0 -1 -2 -1 -1 -1 -1 -2 -1 -1 -1 -1 -1 -0